Louisville, KY

12:53 PM EDT on June 22, 2017 (GMT -0400)
Louisville International-Standiford

Weather History for KSDF - February, 2012

Change the Weather History Date:

Tuesday, February 21, 2012

  Actual Average Record
Temperature  
Mean Temperature 45 °F 40 °F  
Max Temperature 53 °F 50 °F 72 °F (2017)
Min Temperature 36 °F 31 °F 3 °F (1963)
Degree Days  
Heating Degree Days 20 25  
Month to date heating degree days 523 568  
Since 1 July heating degree days 2651 3077  
Cooling Degree Days 0 0  
Month to date cooling degree days 0 0  
Year to date cooling degree days 0 0  
Moisture  
Dew Point 36 °F    
Average Humidity 66    
Maximum Humidity 80    
Minimum Humidity 52    
Precipitation  
Precipitation 0.07 in 0.11 in 1.58 in (1971)
Month to date precipitation 1.05 2.37  
Year to date precipitation 5.20 5.61  
Snow  
Snow 0.00 in 0.10 in 5.50 in (1948)
Month to date snowfall 1.7 3.6  
Since 1 July snowfall 3.5 10.1  
Snow Depth 0.00 in    
Sea Level Pressure  
Sea Level Pressure 29.90 in    
Wind  
Wind Speed 14 mph (SW)    
Max Wind Speed 26 mph    
Max Gust Speed 36 mph    
Visibility 9 miles    
Events Rain    
T = Trace of Precipitation, MM = Missing Value Source: NWS Daily Summary

Daily Weather History Graph

Daily Weather History Graph

Search for Another Location

Airport or City:

Trip Planner

Search our weather history database for the weather conditions in past years. The results will help you decide how hot, cold, wet, or windy it might be!

Date:

Astronomy

Feb. 21, 2012 Rise Set
Actual Time 7:26 AM EST 6:27 PM EST
Civil Twilight 6:59 AM EST 6:54 PM EST
Nautical Twilight 6:28 AM EST 7:24 PM EST
Astronomical Twilight 5:58 AM EST 7:55 PM EST
Moon 6:55 AM EST (2/21) 6:32 PM EST (2/21)
Length of Visible Light 11h 54m
Length of Day
11h 01m
Waning Crescent, 0% of the Moon is Illuminated
Feb 21
Waning Crescent
Feb 21
New
Feb 29
First Quarter
Mar 8
Full
Mar 14
Last Quarter

Hourly Weather History & Observations

Time (EST) Temp. Windchill Dew Point Humidity Pressure Visibility Wind Dir Wind Speed Gust Speed Precip Events Conditions
12:56 AM 37.0 °F 30.4 °F 28.0 °F 70% 30.04 in 10.0 mi SSE 9.2 mph - N/A   Overcast
1:56 AM 37.0 °F 30.4 °F 28.0 °F 70% 30.03 in 10.0 mi SE 9.2 mph - N/A   Overcast
2:56 AM 37.0 °F 30.4 °F 28.9 °F 73% 29.97 in 10.0 mi SE 9.2 mph - N/A   Overcast
3:56 AM 39.9 °F 33.9 °F 30.0 °F 68% 29.90 in 10.0 mi SE 9.2 mph - N/A   Overcast
4:56 AM 48.0 °F - 34.0 °F 58% 29.90 in 10.0 mi SSW 18.4 mph 31.1 mph 0.00 in Rain Light Rain
5:56 AM 45.0 °F 37.6 °F 39.0 °F 80% 29.86 in 10.0 mi South 17.3 mph 23.0 mph 0.05 in   Overcast
6:56 AM 46.0 °F 39.6 °F 39.0 °F 76% 29.85 in 10.0 mi South 15.0 mph 21.9 mph N/A   Overcast
7:56 AM 48.0 °F - 39.9 °F 74% 29.84 in 10.0 mi South 17.3 mph 25.3 mph N/A   Overcast
8:56 AM 48.9 °F - 39.9 °F 71% 29.85 in 10.0 mi SSW 13.8 mph 24.2 mph 0.00 in   Overcast
9:23 AM 48.2 °F - 41.0 °F 76% 29.86 in 2.0 mi WSW 15.0 mph 28.8 mph 0.00 in Rain Rain
9:35 AM 46.4 °F 38.7 °F 42.8 °F 87% 29.88 in 2.0 mi West 20.7 mph 26.5 mph 0.01 in Rain Light Rain
9:39 AM 46.4 °F 39.2 °F 41.0 °F 81% 29.87 in 6.0 mi WSW 18.4 mph 29.9 mph 0.01 in Rain Light Rain
9:51 AM 46.4 °F 39.0 °F 41.0 °F 81% 29.88 in 10.0 mi SW 19.6 mph 25.3 mph 0.02 in   Mostly Cloudy
9:56 AM 48.0 °F - 42.1 °F 80% 29.89 in 10.0 mi WSW 13.8 mph 25.3 mph 0.02 in   Mostly Cloudy
10:56 AM 53.1 °F - 39.9 °F 61% 29.89 in 10.0 mi WSW 20.7 mph 35.7 mph N/A   Mostly Cloudy
11:56 AM 50.0 °F - 35.1 °F 57% 29.91 in 10.0 mi WSW 19.6 mph 32.2 mph N/A   Overcast
12:56 PM 51.1 °F - 35.1 °F 54% 29.91 in 10.0 mi WSW 15.0 mph 29.9 mph N/A   Overcast
1:56 PM 50.0 °F - 34.0 °F 54% 29.89 in 10.0 mi WSW 17.3 mph 24.2 mph N/A   Overcast
2:56 PM 51.1 °F - 35.1 °F 54% 29.89 in 10.0 mi WSW 18.4 mph 27.6 mph N/A   Overcast
3:56 PM 52.0 °F - 35.1 °F 53% 29.89 in 10.0 mi WSW 13.8 mph 20.7 mph N/A   Overcast
4:56 PM 51.1 °F - 35.1 °F 54% 29.87 in 10.0 mi SW 16.1 mph - N/A   Overcast
5:56 PM 50.0 °F - 35.1 °F 57% 29.88 in 10.0 mi West 15.0 mph - N/A   Mostly Cloudy
6:56 PM 50.0 °F - 36.0 °F 59% 29.91 in 10.0 mi West 11.5 mph 23.0 mph N/A   Overcast
7:56 PM 48.0 °F - 35.1 °F 61% 29.92 in 10.0 mi West 12.7 mph - N/A   Mostly Cloudy
8:56 PM 48.0 °F - 35.1 °F 61% 29.92 in 10.0 mi WSW 12.7 mph - N/A   Mostly Cloudy
9:56 PM 46.9 °F - 35.1 °F 63% 29.91 in 10.0 mi WSW 11.5 mph 19.6 mph N/A   Clear
10:56 PM 46.9 °F - 36.0 °F 66% 29.92 in 10.0 mi WSW 10.4 mph - N/A   Clear
11:56 PM 46.0 °F 41.4 °F 36.0 °F 68% 29.91 in 10.0 mi SW 9.2 mph - N/A   Clear